Location: Bald Rock
(37.3738°N, 119.9354°W)
Time: 11:45:11
(UTC+00:00)

Cosmos 1821 Rocket - Pass Details

Date: 08 September 2024
Orbit: 943 x 1004 km, 82.9° (Epoch: 12 October)

Event Time Altitude Azimuth Distance (km) Brightness Sun altitude
Rises 12:08:14 0° 344° (NNW) 3,621 7.1 -17.8°
Reaches altitude 10° 12:10:53 10° 336° (NNW) 2,669 6.3 -17.3°
Maximum altitude 12:16:24 38° 271° (W) 1,409 4.4 -16.3°
Drops below altitude 10° 12:21:55 10° 205° (SSW) 2,658 5.9 -15.2°
Enters shadow 12:22:18 - 204° (SSW) 2,789 6.0 -15.2°
